Temp
16 16 18 19 19 18 18 19 20 19 17 17 18 18 17 15 14 15 14 13 13 12 12 12 11 11 11 9 9 10 10 11 11 10 10 10 10 10 10 10 10 9 9 9
17 17 18 18 18 18 18 19 20 19 18 18 19 18 18 16 15 15 14 14 13 12 12 12 11 11 11 10 9 10 10 10 10 11 11 10 10 9 9 9 10 10 9 9
17 18 18 18 18 18 19 20 19 19 19 19 18 17 18 17 15 15 15 14 14 13 13 12 11 11 11 10 9 10 10 10 10 11 11 11 10 10 10 10 10 10 10 10
18 18 18 18 18 18 19 19 19 18 19 17 20 20 18 18 16 15 15 15 15 14 13 13 12 11 11 11 10 10 10 10 10 11 11 11 10 10 9 9 9 10 10 9
18 18 18 18 18 19 19 18 18 18 19 20 20 21 18 19 18 16 16 15 15 15 14 13 13 12 12 11 10 10 11 11 11 11 11 11 11 11 10 10 10 10 10 10
17 18 17 18 18 18 18 18 18 19 20 22 21 21 22 20 19 19 17 16 15 15 15 14 13 13 12 12 11 10 11 11 11 11 11 11 11 11 10 11 10 10 10 11
17 17 17 17 18 18 18 18 20 22 22 23 21 21 22 20 19 19 18 16 16 15 15 14 13 13 13 12 11 11 10 12 12 12 12 12 12 12 11 11 10 10 9 10
20 20 18 18 17 19 18 19 21 21 23 23 21 22 21 20 19 18 18 17 16 15 15 15 14 13 13 12 12 11 11 12 12 12 12 12 12 12 11 11 10 10 10 10
19 19 18 18 18 18 19 19 20 21 21 22 23 22 21 20 19 18 18 17 16 16 15 14 14 14 13 12 12 11 11 13 13 13 12 12 12 12 11 11 11 10 10 10
18 18 18 18 17 18 18 19 20 20 21 21 23 22 21 20 19 18 18 18 17 16 16 15 14 14 14 13 13 12 11 13 14 13 12 12 12 12 12 11 11 11 11 10
17 18 18 18 17 19 18 18 19 20 21 23 22 22 20 19 18 18 18 18 17 16 16 16 15 15 14 14 13 12 12 13 14 13 13 13 12 12 11 11 11 11 11 11
16 17 18 19 19 19 19 19 19 20 20 20 21 21 19 18 18 18 17 17 17 16 16 16 15 14 14 14 13 13 12 14 15 14 13 13 12 12 12 11 12 11 11 11
17 17 18 19 19 18 18 19 19 20 21 21 22 21 18 18 17 18 18 16 16 16 16 16 16 15 14 15 14 15 14 15 14 14 14 13 13 13 12 12 13 13 12 12
15 17 18 19 20 19 19 18 18 19 20 21 21 20 19 17 17 16 16 17 17 16 16 16 16 15 15 16 16 16 15 15 14 14 14 14 14 13 13 13 13 12 12 11
15 16 17 18 18 18 18 19 19 19 19 20 21 21 18 17 17 16 16 17 16 15 15 15 16 16 16 16 16 16 16 15 15 14 14 14 14 13 13 12 12 12 12 11
15 16 16 15 17 18 18 18 19 19 19 19 20 19 19 17 16 15 15 16 17 16 15 16 15 16 16 16 16 16 16 15 15 15 15 14 14 13 13 13 12 12 11 11
15 16 16 16 16 17 18 18 18 19 19 19 19 19 17 16 15 14 14 14 17 17 17 17 16 15 15 15 16 16 16 16 15 15 15 15 14 14 13 13 12 12 12 11
14 15 15 13 8 16 18 17 18 18 18 18 18 17 15 15 15 13 15 15 16 17 17 17 17 17 15 15 15 16 16 16 16 16 15 15 14 14 14 13 13 12 12 10
14 14 15 15 15 14 14 16 17 17 17 17 17 16 15 14 15 12 13 14 15 14 15 16 16 17 17 16 14 17 16 16 16 15 15 14 14 14 13 13 11 9 11 11
13 13 13 14 15 14 13 11 14 16 16 15 15 14 14 14 16 12 13 14 14 12 12 14 15 15 16 16 16 17 16 16 16 15 16 15 14 14 13 12 11 11 9 10
9 10 12 13 14 15 12 13 12 10 12 12 12 12 12 13 14 12 12 13 13 13 12 12 14 15 15 16 16 16 16 16 16 15 14 14 13 13 12 13 13 11 10 9
9 9 9 12 15 15 12 12 13 11 11 10 11 11 13 13 13 13 12 12 11 13 13 11 13 13 14 14 15 15 15 14 14 14 13 13 13 12 13 13 13 12 11 9
11 9 11 10 11 10 10 10 10 10 10 11 10 10 10 11 11 11 11 11 11 10 12 13 13 13 13 13 13 13 14 14 14 13 13 13 12 13 14 13 13 12 11 9
8 9 9 11 10 7 10 10 10 10 9 9 10 10 11 12 11 11 11 11 10 10 12 12 13 13 13 13 13 13 13 13 13 13 13 13 13 13 13 13 11 11 11 10
8 8 8 10 10 10 10 9 9 8 8 9 10 10 11 11 12 10 10 10 10 9 11 11 11 12 12 12 12 12 12 13 12 13 13 13 13 12 12 11 10 10 11 9
8 8 8 10 8 8 8 8 8 9 9 9 9 9 9 10 11 11 10 10 9 9 9 10 10 11 11 11 11 11 11 11 12 12 12 13 12 12 12 10 9 10 10 9
Height
3179 3180 3178 3175 3174 3175 3176 3175 3171 3171 3171 3169 3167 3167 3168 3168 3171 3173 3175 3177 3178 3181 3184 3187 3189 3191 3193 3191 3191 3191 3193 3194 3196 3197 3199 3200 3201 3202 3203 3203 3204 3203 3201 3200
3179 3176 3176 3176 3176 3177 3177 3174 3170 3172 3171 3169 3167 3166 3166 3167 3168 3171 3172 3174 3177 3179 3181 3184 3186 3190 3191 3192 3191 3192 3193 3194 3196 3197 3199 3200 3201 3204 3204 3203 3203 3203 3201 3199
3174 3174 3174 3175 3176 3177 3175 3171 3171 3173 3169 3169 3168 3168 3165 3165 3166 3168 3170 3172 3175 3176 3179 3180 3183 3186 3189 3190 3190 3191 3192 3194 3195 3197 3199 3201 3202 3203 3203 3204 3202 3202 3201 3200
3171 3172 3172 3174 3175 3176 3172 3171 3173 3172 3167 3164 3161 3159 3166 3164 3164 3165 3167 3169 3172 3174 3176 3179 3180 3183 3186 3189 3189 3190 3191 3193 3195 3196 3198 3200 3202 3203 3204 3204 3203 3203 3201 3199
3169 3169 3170 3171 3172 3173 3173 3172 3173 3171 3167 3158 3158 3155 3158 3161 3159 3161 3163 3166 3169 3172 3174 3177 3179 3181 3185 3186 3189 3189 3190 3192 3194 3195 3198 3199 3201 3203 3204 3203 3203 3201 3201 3199
3166 3167 3168 3168 3170 3171 3173 3173 3171 3168 3161 3151 3156 3159 3152 3156 3159 3160 3160 3162 3165 3169 3173 3175 3178 3181 3183 3186 3186 3188 3187 3190 3192 3194 3196 3198 3200 3201 3203 3203 3202 3201 3200 3199
3162 3163 3165 3166 3166 3167 3170 3171 3164 3156 3149 3148 3152 3158 3152 3155 3157 3157 3158 3159 3163 3167 3170 3173 3176 3178 3181 3184 3185 3187 3186 3188 3190 3192 3195 3197 3199 3200 3201 3202 3201 3201 3200 3196
3154 3155 3157 3161 3163 3163 3166 3167 3161 3154 3147 3147 3152 3153 3153 3156 3156 3156 3157 3159 3161 3164 3168 3172 3174 3177 3179 3181 3182 3184 3184 3185 3188 3191 3194 3196 3197 3199 3200 3200 3200 3200 3199 3197
3153 3154 3154 3157 3160 3163 3162 3162 3162 3159 3155 3150 3145 3151 3153 3155 3156 3157 3158 3159 3160 3163 3166 3168 3172 3175 3177 3178 3179 3181 3182 3183 3186 3189 3192 3193 3195 3197 3198 3199 3200 3199 3199 3196
3154 3154 3154 3155 3158 3158 3159 3160 3159 3157 3157 3154 3145 3148 3147 3154 3158 3158 3159 3159 3159 3160 3163 3167 3169 3173 3175 3177 3178 3179 3180 3181 3184 3187 3189 3191 3194 3195 3196 3197 3197 3197 3196 3195
3153 3153 3152 3153 3154 3153 3156 3157 3157 3153 3150 3144 3145 3144 3150 3153 3157 3159 3159 3160 3160 3160 3162 3165 3166 3170 3173 3176 3178 3178 3178 3179 3181 3184 3186 3188 3190 3192 3193 3194 3194 3194 3193 3192
3150 3149 3147 3147 3147 3148 3149 3150 3153 3152 3154 3153 3148 3148 3151 3153 3155 3159 3160 3161 3161 3161 3162 3164 3166 3167 3170 3172 3175 3177 3178 3177 3179 3181 3183 3186 3187 3189 3190 3191 3191 3190 3190 3188
3148 3146 3145 3142 3144 3145 3148 3148 3147 3147 3147 3145 3143 3145 3150 3152 3153 3155 3156 3158 3159 3159 3160 3163 3165 3165 3166 3168 3171 3172 3174 3175 3176 3178 3181 3182 3184 3185 3185 3185 3185 3185 3185 3184
3147 3144 3140 3137 3136 3137 3138 3144 3146 3147 3143 3143 3144 3144 3149 3151 3151 3153 3154 3154 3155 3156 3158 3159 3161 3163 3163 3164 3166 3169 3171 3172 3173 3175 3176 3178 3179 3179 3179 3179 3181 3182 3183 3182
3146 3141 3139 3136 3134 3137 3138 3136 3140 3143 3142 3141 3141 3141 3145 3148 3147 3151 3152 3152 3152 3153 3156 3157 3157 3159 3161 3162 3163 3165 3167 3169 3169 3171 3172 3173 3175 3176 3178 3178 3180 3179 3179 3176
3141 3140 3137 3135 3136 3135 3135 3135 3135 3137 3140 3139 3140 3144 3142 3145 3147 3149 3150 3150 3150 3150 3151 3155 3155 3155 3157 3159 3160 3161 3163 3164 3166 3166 3168 3170 3171 3171 3172 3172 3173 3173 3169 3167
3136 3135 3135 3130 3134 3131 3130 3130 3131 3133 3136 3139 3142 3142 3143 3146 3147 3147 3148 3148 3147 3147 3147 3148 3149 3153 3154 3154 3155 3157 3158 3160 3161 3162 3163 3162 3164 3164 3166 3164 3161 3160 3162 3162
3137 3134 3131 3132 3146 3125 3125 3124 3126 3130 3133 3136 3138 3139 3144 3146 3145 3144 3145 3144 3144 3144 3143 3143 3145 3146 3150 3152 3152 3152 3153 3155 3156 3157 3157 3158 3159 3159 3156 3156 3157 3155 3159 3157
3132 3133 3128 3128 3125 3128 3122 3126 3127 3129 3133 3134 3137 3138 3141 3143 3145 3143 3142 3142 3142 3141 3140 3139 3140 3141 3142 3144 3146 3145 3146 3149 3151 3151 3152 3153 3152 3153 3154 3158 3154 3143 3154 3150
3123 3125 3128 3126 3123 3125 3122 3122 3119 3125 3130 3134 3135 3137 3142 3142 3144 3140 3141 3141 3141 3140 3137 3136 3136 3137 3137 3138 3138 3139 3141 3143 3145 3145 3145 3148 3150 3152 3152 3151 3144 3136 3146 3144
3126 3121 3119 3120 3118 3118 3117 3121 3125 3130 3133 3132 3134 3133 3135 3138 3140 3138 3138 3139 3139 3139 3137 3135 3133 3133 3132 3133 3133 3135 3137 3139 3140 3143 3145 3145 3145 3146 3147 3145 3139 3137 3138 3134
3128 3126 3123 3112 3115 3120 3120 3123 3126 3129 3129 3131 3132 3132 3132 3134 3135 3136 3136 3137 3137 3137 3136 3135 3132 3131 3130 3129 3129 3130 3132 3135 3136 3137 3138 3137 3138 3139 3140 3137 3134 3135 3132 3130
3122 3123 3125 3125 3120 3120 3119 3125 3125 3125 3125 3126 3127 3129 3130 3132 3133 3134 3135 3134 3135 3134 3133 3133 3132 3131 3131 3129 3128 3128 3129 3130 3132 3133 3133 3133 3133 3134 3132 3131 3129 3128 3126 3126
3115 3118 3119 3126 3115 3107 3121 3125 3125 3123 3122 3124 3125 3126 3127 3129 3130 3131 3132 3132 3132 3131 3129 3129 3128 3128 3128 3128 3128 3128 3128 3129 3130 3130 3130 3129 3128 3127 3127 3124 3124 3124 3124 3122
3112 3115 3117 3120 3123 3121 3118 3122 3122 3119 3119 3121 3122 3123 3124 3124 3125 3126 3127 3128 3127 3127 3125 3125 3125 3125 3125 3126 3125 3125 3126 3126 3126 3127 3126 3125 3124 3122 3121 3119 3119 3122 3121 3119
3114 3114 3119 3115 3114 3116 3114 3113 3115 3117 3118 3120 3121 3120 3120 3120 3119 3119 3120 3123 3122 3122 3121 3121 3121 3121 3121 3121 3121 3121 3121 3121 3120 3121 3120 3119 3117 3117 3115 3115 3116 3119 3117 3117
Wind_Speed
11 13 15 10 8 7 3 6 8 7 5 6 4 4 4 9 13 13 13 15 19 20 19 20 19 17 17 15 17 14 13 11 10 10 10 8 6 5 4 3 3 5 8 11
16 17 14 12 11 8 7 9 5 4 6 5 4 6 5 9 16 17 16 17 17 19 22 24 22 20 18 19 18 16 13 11 11 11 11 9 7 4 2 1 3 6 9 11
20 15 11 17 13 12 11 13 8 9 11 8 8 6 4 6 13 18 19 18 17 19 23 24 25 23 21 21 21 19 15 12 11 12 11 10 7 4 2 3 6 7 11 11
21 18 19 15 16 14 16 5 8 11 15 9 6 1 4 4 7 17 20 21 20 20 21 24 26 26 24 23 20 21 19 16 15 14 14 12 10 6 4 2 6 7 9 12
18 14 18 22 19 13 14 10 10 11 13 21 3 12 12 5 5 11 18 22 22 21 20 23 24 24 23 22 22 22 21 19 18 17 15 15 14 9 7 6 6 8 9 12
18 10 15 16 20 20 16 13 12 13 17 17 6 7 3 4 6 5 10 20 24 23 22 20 21 23 23 23 22 22 24 22 21 19 19 17 14 11 8 6 6 7 12 9
18 19 19 13 15 17 19 16 20 14 16 4 8 9 7 8 8 5 7 14 22 22 22 22 22 22 24 25 25 23 26 24 22 21 20 17 14 12 10 6 4 5 9 13
17 20 20 20 17 15 16 19 20 8 8 10 4 2 4 5 5 2 2 7 16 21 22 22 21 21 23 25 26 25 25 25 24 22 20 18 16 14 11 7 6 8 10 13
16 16 7 12 16 17 19 19 16 20 17 14 2 5 7 3 6 2 2 3 10 17 21 21 22 22 23 23 25 25 26 24 24 22 21 20 17 16 13 11 7 8 9 13
19 15 10 8 14 17 23 20 14 17 10 10 4 8 13 7 7 4 2 1 5 12 18 20 20 20 21 21 22 24 24 24 23 23 23 21 19 19 17 13 9 12 11 13
17 19 15 10 14 17 17 23 20 19 15 9 4 10 7 8 7 4 2 3 2 6 14 18 18 19 19 20 21 21 22 21 22 24 23 22 20 20 19 15 13 14 14 15
15 17 22 22 10 13 19 16 24 24 18 16 15 3 6 8 6 4 2 2 4 4 10 15 17 18 19 20 21 22 23 20 20 21 23 21 21 22 21 19 16 16 17 16
8 14 21 19 20 16 15 18 16 23 26 21 14 9 9 8 6 2 1 4 6 8 10 11 13 16 19 21 21 21 22 20 19 21 22 23 23 24 24 23 20 19 20 19
13 14 21 20 14 12 21 18 21 21 23 16 16 7 10 6 5 5 4 4 8 12 13 12 16 17 16 16 21 22 19 22 22 22 22 23 23 24 25 26 25 24 24 24
13 18 17 20 22 11 18 15 20 19 23 25 6 9 13 6 3 5 6 5 6 5 7 13 14 17 17 15 16 18 19 21 23 23 23 22 23 26 28 32 29 29 29 31
16 21 18 16 18 18 20 21 19 22 20 23 12 6 6 4 4 4 7 8 7 7 7 7 12 14 16 20 19 19 19 19 19 18 21 24 27 27 29 31 32 31 32 34
18 21 17 18 22 22 20 22 22 19 19 15 17 5 1 3 4 5 5 8 11 11 12 16 15 14 15 15 18 21 21 21 23 25 22 26 27 30 30 32 36 39 38 35
22 21 20 12 29 9 11 5 18 18 17 18 16 1 1 3 3 2 11 11 12 10 11 17 18 16 12 16 19 20 22 22 23 24 28 26 28 32 36 38 39 43 35 39
24 26 26 22 11 12 16 12 12 12 9 13 13 5 2 3 3 1 9 11 12 9 10 12 17 21 21 21 19 23 25 23 24 28 30 31 34 35 36 35 35 18 42 50
20 17 22 27 20 4 27 16 9 12 15 7 4 5 4 2 6 1 6 11 14 11 12 14 11 13 20 20 26 22 24 22 24 28 26 27 29 30 31 28 27 30 38 44
28 19 17 26 21 23 4 18 5 14 2 3 4 5 1 3 12 9 8 11 11 12 8 9 9 9 12 17 20 22 23 23 20 18 20 22 23 24 20 22 31 30 22 14
13 11 28 24 18 11 2 4 10 9 12 2 1 2 7 8 11 11 9 9 8 8 8 7 5 7 7 9 15 21 22 18 19 20 20 22 21 20 19 26 24 21 14 15
13 8 13 13 11 12 11 3 3 3 2 6 5 4 6 7 8 8 9 9 9 11 14 18 16 12 7 3 2 5 15 24 24 23 23 24 21 18 20 22 20 17 13 10
18 15 15 15 6 7 8 2 1 2 3 3 5 7 12 13 12 12 12 12 11 12 17 17 15 19 17 14 10 4 3 2 4 8 12 16 19 18 17 20 18 14 13 9
13 18 11 18 14 9 4 6 4 4 5 8 9 10 12 13 15 13 13 13 10 9 14 15 15 12 12 10 7 6 8 9 12 12 14 17 20 22 24 20 16 16 15 10
8 7 14 14 10 5 4 5 8 10 11 11 12 13 12 14 16 18 16 15 14 11 15 14 15 15 14 12 10 10 7 8 9 15 17 19 22 22 19 17 17 18 12 12
Wind_Direction
239 233 236 248 272 311 311 308 310 360 330 337 316 317 253 215 199 199 206 205 204 202 201 201 192 200 197 216 189 182 179 172 164 163 158 153 138 129 107 65 24 7 3 352
226 237 237 248 266 271 282 283 338 329 316 307 325 320 252 217 205 202 211 207 207 203 202 198 200 200 204 211 208 183 176 173 176 177 176 171 172 195 212 327 347 354 354 353
231 235 244 244 258 256 257 281 337 315 294 269 286 326 127 205 208 210 212 211 209 209 204 204 202 199 206 213 211 198 189 181 184 190 193 192 195 216 253 315 342 357 346 347
238 246 246 246 243 247 264 298 293 308 308 158 296 242 26 161 202 216 214 213 213 210 205 210 205 205 206 209 217 205 202 196 195 198 199 203 205 233 285 293 277 304 322 339
239 244 243 240 236 233 259 304 279 297 298 288 181 297 172 136 221 213 220 220 212 214 211 206 210 210 208 213 209 213 213 210 208 204 204 208 216 227 245 260 335 312 329 337
237 246 238 242 240 239 249 272 270 266 257 264 72 343 306 91 347 308 234 215 214 211 211 209 210 210 213 214 215 213 222 216 214 210 208 211 218 226 236 276 320 330 331 341
243 245 247 242 242 236 229 244 263 247 236 234 55 307 288 347 330 300 232 216 210 210 209 213 211 208 210 212 217 214 229 219 219 213 214 214 218 227 232 253 289 348 320 330
248 226 234 231 232 224 227 237 260 298 297 357 312 275 42 13 5 100 147 213 203 208 211 210 217 213 215 212 214 213 227 222 221 217 216 219 225 229 234 240 280 323 337 334
262 246 234 222 233 234 234 240 253 277 284 257 272 30 283 49 48 56 151 206 210 211 209 213 210 215 217 216 213 216 219 225 224 221 221 224 230 235 241 257 269 298 309 316
241 265 248 249 239 232 231 238 247 229 261 273 248 265 109 88 51 46 102 332 215 210 208 211 212 215 214 219 218 218 224 231 226 223 224 228 232 237 245 254 269 287 303 309
238 247 261 225 239 232 221 236 239 266 275 302 262 87 95 104 86 62 72 74 162 199 197 203 210 206 215 215 222 222 226 233 234 228 231 235 238 241 245 256 263 281 292 296
240 246 241 241 262 231 241 235 229 235 234 259 293 332 138 126 105 80 121 135 147 180 193 203 214 213 211 217 215 222 234 245 244 240 240 242 246 246 246 255 265 270 281 286
252 234 250 255 239 226 240 239 236 238 245 253 268 156 134 103 71 9 223 184 220 206 201 201 215 221 226 225 226 238 237 254 251 246 244 242 244 248 251 258 264 261 268 275
228 250 247 257 246 272 225 228 235 238 250 244 237 161 152 93 75 30 358 282 221 221 237 235 219 219 237 230 236 246 246 248 252 249 248 248 249 254 255 259 262 264 268 271
235 255 261 266 262 272 257 249 221 233 240 244 293 205 107 68 35 359 0 328 274 249 239 235 238 233 238 238 229 235 245 245 252 250 252 252 251 255 258 258 262 271 274 271
241 253 267 289 254 252 249 243 246 231 230 240 258 240 318 359 17 352 350 313 308 261 237 218 239 231 234 238 244 245 241 241 246 250 249 249 250 253 255 260 258 267 268 269
260 264 279 270 288 238 237 238 233 235 224 231 235 229 84 345 28 15 357 341 299 299 265 230 202 233 237 237 233 234 235 237 240 246 243 245 246 250 252 252 252 257 260 252
248 255 258 233 289 274 234 253 214 222 222 220 237 323 87 27 25 42 306 308 295 283 274 251 228 218 229 234 246 232 228 230 235 239 245 248 247 248 250 253 254 259 271 297
239 244 259 277 226 228 251 233 214 219 241 235 232 240 324 344 282 277 319 322 310 316 296 264 241 236 229 223 224 248 233 233 235 238 242 246 248 252 255 262 260 277 283 299
240 230 239 248 278 208 257 254 88 192 210 203 210 204 241 295 288 192 266 304 320 335 336 313 291 261 243 239 241 258 233 232 234 238 247 252 254 259 264 262 274 307 285 296
241 287 241 228 254 266 214 262 297 303 55 90 163 206 191 177 234 278 293 296 307 310 329 348 321 296 259 241 242 234 237 235 243 244 246 246 248 253 267 303 318 291 279 269
218 244 277 309 227 241 127 160 200 195 242 281 122 289 240 245 250 262 273 277 320 280 284 348 342 345 305 267 243 231 232 234 225 226 229 235 239 245 255 295 304 288 264 255
225 271 232 275 301 224 29 45 111 143 222 264 305 308 289 281 279 283 295 290 303 300 275 291 283 304 320 350 28 260 241 237 234 237 242 247 249 260 281 288 281 269 267 256
285 222 290 270 71 138 215 292 329 4 2 360 321 316 284 275 278 278 280 284 281 286 292 298 294 282 293 292 311 285 231 237 235 254 256 255 258 260 262 282 257 250 253 229
280 258 281 275 266 253 234 215 259 279 325 311 304 305 298 288 279 273 269 271 275 279 285 292 302 305 304 305 309 286 260 253 290 287 263 260 263 257 269 257 228 236 247 222
247 227 247 267 272 238 205 232 286 292 283 286 288 289 294 299 294 282 256 253 257 259 274 290 293 297 301 307 304 297 290 280 273 262 259 260 266 264 249 228 233 241 243 227